| time (UTC) | temp F | wind direction | speed MPH | gust MPH | rain 1hr in | rain 24hr in | rain mn in | humidity % | barometer mb |
| 20260506044133 | 64 | 5 | 6.0 | 15.0 | 0.00 | 0.00 | 0.00 | 80 | 1026.1 |
| 20260506043630 | 64 | 21 | 7.0 | 16.0 | 0.00 | 0.00 | 0.00 | 80 | 1026.0 |
| 20260506043130 | 64 | 42 | 7.0 | 16.0 | 0.00 | 0.00 | 0.00 | 79 | 1026.1 |
| 20260506042636 | 64 | 25 | 7.0 | 14.0 | 0.00 | 0.00 | 0.00 | 79 | 1026.0 |
| 20260506042130 | 64 | 17 | 6.0 | 13.0 | 0.00 | 0.00 | 0.00 | 78 | 1026.0 |
| 20260506041130 | 65 | 5 | 6.0 | 14.0 | 0.00 | 0.00 | 0.00 | 78 | 1026.1 |
| 20260506040629 | 65 | 28 | 7.0 | 14.0 | 0.00 | 0.00 | 0.00 | 77 | 1026.1 |
| 20260506040126 | 65 | 55 | 6.0 | 14.0 | 0.00 | 0.00 | 0.00 | 78 | 1026.0 |
| 20260506035627 | 65 | 11 | 7.0 | 14.0 | 0.00 | 0.00 | 0.00 | 78 | 1026.1 |
| 20260506035126 | 65 | 0 | 7.0 | 13.0 | 0.00 | 0.00 | 0.00 | 78 | 1026.2 |
| 20260506034627 | 65 | 32 | 7.0 | 13.0 | 0.00 | 0.00 | 0.00 | 77 | 1026.3 |
| 20260506034127 | 65 | 23 | 7.0 | 13.0 | 0.00 | 0.00 | 0.00 | 78 | 1026.2 |
| 20260506033126 | 65 | 19 | 6.0 | 13.0 | 0.00 | 0.00 | 0.00 | 75 | 1026.3 |
| 20260506032627 | 66 | 14 | 8.0 | 16.0 | 0.00 | 0.00 | 0.00 | 74 | 1026.3 |
| 20260506032126 | 67 | 40 | 9.0 | 16.0 | 0.00 | 0.00 | 0.00 | 73 | 1026.4 |
| 20260506031625 | 67 | 24 | 8.0 | 13.0 | 0.00 | 0.00 | 0.00 | 73 | 1026.4 |
| 20260506031122 | 67 | 16 | 7.0 | 17.0 | 0.00 | 0.00 | 0.00 | 73 | 1026.4 |
| 20260506030615 | 67 | 37 | 6.0 | 17.0 | 0.00 | 0.00 | 0.00 | 72 | 1026.3 |
| 20260506030113 | 67 | 27 | 6.0 | 13.0 | 0.00 | 0.00 | 0.00 | 72 | 1026.4 |
| 20260506025609 | 67 | 351 | 7.0 | 14.0 | 0.00 | 0.00 | 0.00 | 72 | 1026.4 |
| 20260506025107 | 67 | 355 | 7.0 | 14.0 | 0.00 | 0.00 | 0.00 | 72 | 1026.3 |
| 20260506024609 | 67 | 5 | 5.0 | 11.0 | 0.00 | 0.00 | 0.00 | 72 | 1026.4 |
| 20260506023609 | 67 | 32 | 6.0 | 12.0 | 0.00 | 0.00 | 0.00 | 72 | 1026.4 |
| 20260506023108 | 67 | 49 | 6.0 | 13.0 | 0.00 | 0.00 | 0.00 | 72 | 1026.4 |
| 20260506022108 | 67 | 27 | 5.0 | 12.0 | 0.00 | 0.00 | 0.00 | 71 | 1026.5 |
| 20260506021607 | 67 | 351 | 6.0 | 12.0 | 0.00 | 0.00 | 0.00 | 72 | 1026.5 |
| 20260506021104 | 67 | 355 | 6.0 | 13.0 | 0.00 | 0.00 | 0.00 | 73 | 1026.6 |
| 20260506020605 | 67 | 12 | 5.0 | 14.0 | 0.00 | 0.00 | 0.00 | 72 | 1026.6 |
| 20260506020105 | 67 | 29 | 5.0 | 14.0 | 0.00 | 0.00 | 0.00 | 72 | 1026.5 |
| 20260506015607 | 67 | 57 | 5.0 | 11.0 | 0.00 | 0.00 | 0.00 | 72 | 1026.5 |
| 20260506014057 | 65 | 64 | 5.0 | 10.0 | 0.00 | 0.00 | 0.00 | 76 | 1026.9 |
| 20260506013554 | 65 | 44 | 5.0 | 11.0 | 0.00 | 0.00 | 0.00 | 77 | 1026.9 |
| 20260506013055 | 65 | 42 | 5.0 | 13.0 | 0.00 | 0.00 | 0.00 | 77 | 1026.9 |
| 20260506012555 | 65 | 338 | 6.0 | 14.0 | 0.00 | 0.00 | 0.00 | 77 | 1026.9 |
| 20260506012053 | 64 | 40 | 7.0 | 14.0 | 0.00 | 0.00 | 0.00 | 80 | 1026.8 |
| 20260506011554 | 63 | 58 | 8.0 | 15.0 | 0.00 | 0.00 | 0.00 | 81 | 1026.9 |
| 20260506010555 | 63 | 36 | 7.0 | 13.0 | 0.00 | 0.00 | 0.00 | 80 | 1026.9 |
| 20260506010055 | 63 | 60 | 7.0 | 12.0 | 0.00 | 0.00 | 0.00 | 79 | 1027.1 |
| 20260506005554 | 64 | 61 | 6.0 | 11.0 | 0.00 | 0.00 | 0.00 | 77 | 1027.1 |
| 20260506005054 | 64 | 37 | 5.0 | 10.0 | 0.00 | 0.00 | 0.00 | 75 | 1027.1 |
| 20260506004555 | 64 | 51 | 5.0 | 11.0 | 0.00 | 0.00 | 0.00 | 75 | 1027.1 |
| 20260506004049 | 65 | 36 | 6.0 | 13.0 | 0.00 | 0.00 | 0.00 | 74 | 1027.1 |
| 20260506003551 | 65 | 342 | 7.0 | 14.0 | 0.00 | 0.00 | 0.00 | 72 | 1027.1 |
| 20260506003050 | 67 | 5 | 6.0 | 14.0 | 0.00 | 0.00 | 0.00 | 70 | 1027.1 |
| 20260506002552 | 67 | 49 | 6.0 | 12.0 | 0.00 | 0.00 | 0.00 | 70 | 1027.3 |
| 20260506002050 | 68 | 135 | 6.0 | 12.0 | 0.00 | 0.00 | 0.00 | 67 | 1027.4 |
| 20260506001551 | 69 | 28 | 6.0 | 13.0 | 0.00 | 0.00 | 0.00 | 63 | 1027.3 |
| 20260506001050 | 69 | 9 | 6.0 | 13.0 | 0.00 | 0.00 | 0.00 | 64 | 1027.5 |
| 20260506000552 | 68 | 29 | 5.0 | 9.0 | 0.00 | 0.00 | 0.00 | 67 | 1027.6 |
| 20260506000100 | 66 | 32 | 4.0 | 8.0 | 0.00 | 0.00 | 0.00 | 70 | 1027.7 |
| 20260505235550 | 64 | 63 | 4.0 | 8.0 | 0.00 | 0.00 | 0.00 | 74 | 1027.9 |
| 20260505235051 | 63 | 66 | 3.0 | 7.0 | 0.00 | 0.00 | 0.00 | 76 | 1028.0 |
| 20260505234551 | 63 | 96 | 3.0 | 5.0 | 0.00 | 0.00 | 0.00 | 76 | 1028.1 |
| 20260505234051 | 62 | 81 | 3.0 | 7.0 | 0.00 | 0.00 | 0.00 | 76 | 1028.1 |
| 20260505233549 | 62 | 59 | 3.0 | 7.0 | 0.00 | 0.00 | 0.00 | 76 | 1028.2 |
| 20260505233049 | 62 | 64 | 3.0 | 7.0 | 0.00 | 0.00 | 0.00 | 76 | 1028.3 |
| 20260505232549 | 62 | 69 | 3.0 | 7.0 | 0.00 | 0.00 | 0.00 | 75 | 1028.4 |
| 20260505232047 | 62 | 52 | 3.0 | 6.0 | 0.00 | 0.00 | 0.00 | 76 | 1028.4 |
| 20260505231548 | 61 | 54 | 3.0 | 6.0 | 0.00 | 0.00 | 0.00 | 76 | 1028.5 |
| 20260505230550 | 60 | 47 | 3.0 | 6.0 | 0.00 | 0.00 | 0.00 | 79 | 1028.6 |
| 20260505230050 | 59 | 63 | 3.0 | 6.0 | 0.00 | 0.00 | 0.00 | 80 | 1028.6 |
| 20260505225550 | 58 | 42 | 3.0 | 5.0 | 0.00 | 0.00 | 0.00 | 80 | 1028.7 |
| 20260505225046 | 58 | 58 | 3.0 | 6.0 | 0.00 | 0.00 | 0.00 | 79 | 1028.7 |
| 20260505224547 | 58 | 53 | 3.0 | 6.0 | 0.00 | 0.00 | 0.00 | 79 | 1028.7 |
| 20260505223546 | 59 | 90 | 2.0 | 4.0 | 0.00 | 0.00 | 0.00 | 78 | 1028.8 |
| 20260505223045 | 59 | 80 | 1.0 | 3.0 | 0.00 | 0.00 | 0.00 | 79 | 1028.9 |
| 20260505222045 | 58 | 126 | 0.0 | 2.0 | 0.00 | 0.00 | 0.00 | 85 | 1028.9 |
| 20260505221541 | 57 | 192 | 0.0 | 2.0 | 0.00 | 0.00 | 0.00 | 87 | 1028.9 |
| 20260505221040 | 56 | 192 | 0.0 | 2.0 | 0.00 | 0.00 | 0.00 | 88 | 1028.8 |
| 20260505220540 | 55 | 193 | 0.0 | 1.0 | 0.00 | 0.00 | 0.00 | 89 | 1029.1 |
| 20260505215540 | 53 | 192 | 1.0 | 3.0 | 0.00 | 0.00 | 0.00 | 91 | 1029.3 |
| 20260505215041 | 53 | 173 | 0.0 | 2.0 | 0.00 | 0.00 | 0.00 | 92 | 1029.3 |
| 20260505214540 | 52 | 173 | 0.0 | 1.0 | 0.00 | 0.00 | 0.00 | 93 | 1029.4 |
| 20260505214038 | 52 | 173 | 0.0 | 2.0 | 0.00 | 0.00 | 0.00 | 93 | 1029.3 |
| 20260505213539 | 51 | 173 | 1.0 | 2.0 | 0.00 | 0.00 | 0.00 | 93 | 1029.3 |
| 20260505213039 | 50 | 173 | 1.0 | 2.0 | 0.00 | 0.00 | 0.00 | 93 | 1029.5 |
| 20260505212540 | 50 | 173 | 0.0 | 2.0 | 0.00 | 0.00 | 0.00 | 94 | 1029.6 |
| 20260505211539 | 48 | 173 | 1.0 | 3.0 | 0.00 | 0.00 | 0.00 | 94 | 1029.7 |
| 20260505211039 | 48 | 167 | 0.0 | 3.0 | 0.00 | 0.00 | 0.00 | 94 | 1029.7 |
| 20260505210540 | 47 | 150 | 0.0 | 0.0 | 0.00 | 0.00 | 0.00 | 93 | 1029.6 |
| 20260505205536 | 47 | 150 | 0.0 | 0.0 | 0.00 | 0.00 | 0.00 | 94 | 1029.7 |
| 20260505205039 | 47 | 150 | 0.0 | 0.0 | 0.00 | 0.00 | 0.00 | 94 | 1029.7 |
| 20260505204541 | 46 | 150 | 0.0 | 0.0 | 0.00 | 0.00 | 0.00 | 94 | 1029.8 |
| 20260505204033 | 46 | 150 | 0.0 | 0.0 | 0.00 | 0.00 | 0.00 | 94 | 1029.8 |
| 20260505203535 | 46 | 150 | 0.0 | 0.0 | 0.00 | 0.00 | 0.00 | 94 | 1029.8 |
| 20260505203031 | 46 | 150 | 0.0 | 0.0 | 0.00 | 0.00 | 0.00 | 94 | 1029.8 |
| 20260505202531 | 46 | 150 | 0.0 | 0.0 | 0.00 | 0.00 | 0.00 | 94 | 1029.7 |
| 20260505202033 | 46 | 150 | 0.0 | 0.0 | 0.00 | 0.00 | 0.00 | 94 | 1029.7 |
| 20260505201532 | 46 | 150 | 0.0 | 0.0 | 0.00 | 0.01 | 0.00 | 94 | 1029.6 |
| 20260505201035 | 45 | 150 | 0.0 | 0.0 | 0.00 | 0.01 | 0.00 | 94 | 1029.5 |
| 20260505200531 | 45 | 150 | 0.0 | 0.0 | 0.00 | 0.01 | 0.00 | 94 | 1029.5 |
| 20260505200032 | 44 | 150 | 0.0 | 0.0 | 0.00 | 0.01 | 0.00 | 94 | 1029.4 |
| 20260505195530 | 44 | 150 | 0.0 | 0.0 | 0.00 | 0.01 | 0.00 | 94 | 1029.4 |
| 20260505195039 | 43 | 150 | 0.0 | 0.0 | 0.00 | 0.01 | 0.00 | 94 | 1029.3 |
| 20260505194531 | 43 | 150 | 0.0 | 0.0 | 0.00 | 0.01 | 0.00 | 94 | 1029.3 |
| 20260505194031 | 43 | 150 | 0.0 | 0.0 | 0.00 | 0.01 | 0.00 | 94 | 1029.3 |
| 20260505192534 | 42 | 150 | 0.0 | 0.0 | 0.00 | 0.01 | 0.00 | 93 | 1029.3 |
| 20260505191514 | 42 | 150 | 0.0 | 0.0 | 0.00 | 0.01 | 0.00 | 93 | 1029.2 |
| 20260505190518 | 42 | 149 | 0.0 | 0.0 | 0.00 | 0.01 | 0.00 | 93 | 1029.1 |
| 20260505190020 | 42 | 150 | 0.0 | 0.0 | 0.00 | 0.01 | 0.00 | 93 | 1029.1 |
| 20260505185513 | 42 | 150 | 0.0 | 0.0 | 0.00 | 0.01 | 0.00 | 93 | 1029.2 |
| 20260505185013 | 42 | 150 | 0.0 | 0.0 | 0.00 | 0.01 | 0.00 | 93 | 1029.3 |
| 20260505184013 | 42 | 150 | 0.0 | 0.0 | 0.00 | 0.01 | 0.00 | 93 | 1029.2 |
| 20260505183513 | 42 | 150 | 0.0 | 0.0 | 0.00 | 0.01 | 0.00 | 93 | 1029.5 |
| 20260505183012 | 42 | 150 | 0.0 | 0.0 | 0.00 | 0.01 | 0.00 | 93 | 1029.3 |
| 20260505182512 | 42 | 149 | 0.0 | 0.0 | 0.00 | 0.01 | 0.00 | 93 | 1029.2 |
| 20260505182014 | 42 | 150 | 0.0 | 0.0 | 0.00 | 0.01 | 0.00 | 93 | 1029.2 |
| 20260505181005 | 43 | 149 | 0.0 | 0.0 | 0.00 | 0.01 | 0.00 | 93 | 1029.2 |
| 20260505180505 | 43 | 150 | 0.0 | 0.0 | 0.00 | 0.01 | 0.00 | 93 | 1029.2 |
| 20260505175504 | 43 | 150 | 0.0 | 0.0 | 0.00 | 0.01 | 0.00 | 93 | 1029.2 |
| 20260505175005 | 43 | 150 | 0.0 | 0.0 | 0.00 | 0.01 | 0.00 | 93 | 1029.4 |
| 20260505174519 | 43 | 150 | 0.0 | 0.0 | 0.00 | 0.01 | 0.00 | 93 | 1029.3 |
| 20260505174008 | 43 | 149 | 0.0 | 0.0 | 0.00 | 0.01 | 0.00 | 93 | 1029.4 |
| 20260505173506 | 43 | 150 | 0.0 | 0.0 | 0.00 | 0.01 | 0.00 | 93 | 1029.5 |
| 20260505173007 | 43 | 150 | 0.0 | 0.0 | 0.00 | 0.01 | 0.00 | 93 | 1029.5 |
| 20260505172505 | 44 | 150 | 0.0 | 0.0 | 0.00 | 0.01 | 0.00 | 93 | 1029.3 |
| 20260505171505 | 44 | 150 | 0.0 | 0.0 | 0.00 | 0.01 | 0.00 | 93 | 1029.4 |
| 20260505170504 | 44 | 150 | 0.0 | 0.0 | 0.00 | 0.01 | 0.00 | 93 | 1029.3 |
| 20260505170003 | 44 | 150 | 0.0 | 0.0 | 0.00 | 0.01 | 0.00 | 93 | 1029.3 |
| 20260505164502 | 44 | 150 | 0.0 | 3.0 | 0.00 | 0.01 | 0.00 | 93 | 1029.2 |
| 20260505164005 | 44 | 150 | 0.0 | 3.0 | 0.00 | 0.01 | 0.00 | 93 | 1029.3 |
| 20260505163502 | 44 | 123 | 0.0 | 0.0 | 0.00 | 0.01 | 0.00 | 93 | 1029.4 |
| 20260505163006 | 44 | 122 | 0.0 | 0.0 | 0.00 | 0.01 | 0.00 | 93 | 1029.5 |
| 20260505162502 | 44 | 123 | 0.0 | 0.0 | 0.00 | 0.01 | 0.00 | 93 | 1029.5 |
| 20260505162002 | 44 | 123 | 0.0 | 0.0 | 0.00 | 0.01 | 0.00 | 93 | 1029.4 |
| 20260505161502 | 44 | 123 | 0.0 | 1.0 | 0.00 | 0.01 | 0.00 | 93 | 1029.5 |
| 20260505161003 | 44 | 123 | 1.0 | 2.0 | 0.00 | 0.01 | 0.00 | 93 | 1029.5 |
| 20260505160500 | 44 | 123 | 1.0 | 2.0 | 0.00 | 0.01 | 0.00 | 93 | 1029.4 |
| 20260505152954 | 44 | 123 | 0.0 | 0.0 | 0.00 | 0.01 | 0.00 | 93 | 1029.5 |
| 20260505151958 | 44 | 123 | 0.0 | 0.0 | 0.00 | 0.01 | 0.00 | 93 | 1029.6 |
| 20260505151453 | 44 | 123 | 0.0 | 0.0 | 0.00 | 0.01 | 0.00 | 93 | 1029.7 |
| 20260505150952 | 44 | 123 | 0.0 | 0.0 | 0.00 | 0.01 | 0.00 | 93 | 1029.8 |
| 20260505150455 | 44 | 122 | 0.0 | 0.0 | 0.00 | 0.01 | 0.00 | 93 | 1029.8 |
| 20260505140445 | 44 | 123 | 0.0 | 1.0 | 0.00 | 0.01 | 0.00 | 92 | 1030.2 |
| 20260505124932 | 45 | 33 | 1.0 | 3.0 | 0.00 | 0.01 | 0.00 | 92 | 1030.4 |
| 20260505124431 | 45 | 311 | 1.0 | 2.0 | 0.00 | 0.01 | 0.00 | 92 | 1030.4 |
| 20260505123431 | 45 | 311 | 1.0 | 2.0 | 0.00 | 0.01 | 0.00 | 92 | 1030.6 |
| 20260505122932 | 45 | 311 | 0.0 | 2.0 | 0.00 | 0.01 | 0.00 | 92 | 1030.5 |
| 20260505122434 | 45 | 311 | 1.0 | 2.0 | 0.00 | 0.01 | 0.00 | 92 | 1030.6 |
| 20260505121936 | 45 | 311 | 1.0 | 3.0 | 0.00 | 0.01 | 0.00 | 92 | 1030.6 |
| 20260505121434 | 46 | 311 | 1.0 | 3.0 | 0.00 | 0.01 | 0.00 | 91 | 1030.7 |
| 20260505120433 | 46 | 311 | 1.0 | 3.0 | 0.00 | 0.01 | 0.00 | 92 | 1030.7 |
| 20260505115432 | 46 | 40 | 0.0 | 2.0 | 0.00 | 0.01 | 0.01 | 92 | 1030.7 |
| 20260505114932 | 46 | 40 | 0.0 | 0.0 | 0.00 | 0.01 | 0.01 | 91 | 1030.7 |
| 20260505114432 | 46 | 40 | 0.0 | 0.0 | 0.00 | 0.01 | 0.01 | 91 | 1030.8 |
| 20260505113929 | 46 | 40 | 0.0 | 0.0 | 0.00 | 0.01 | 0.01 | 92 | 1030.8 |
| 20260505113430 | 46 | 41 | 0.0 | 0.0 | 0.00 | 0.01 | 0.01 | 92 | 1031.0 |
| 20260505112930 | 46 | 41 | 0.0 | 0.0 | 0.00 | 0.01 | 0.01 | 91 | 1031.1 |
| 20260505112430 | 46 | 41 | 0.0 | 0.0 | 0.00 | 0.01 | 0.01 | 91 | 1031.0 |
| 20260505111929 | 46 | 40 | 0.0 | 0.0 | 0.00 | 0.01 | 0.01 | 91 | 1031.0 |
| 20260505111429 | 46 | 40 | 0.0 | 0.0 | 0.00 | 0.01 | 0.01 | 91 | 1031.2 |
| 20260505110927 | 46 | 40 | 0.0 | 0.0 | 0.00 | 0.01 | 0.01 | 91 | 1031.3 |
| 20260505110435 | 46 | 40 | 0.0 | 0.0 | 0.00 | 0.01 | 0.01 | 91 | 1031.4 |
| 20260505101913 | 47 | 40 | 0.0 | 0.0 | 0.00 | 0.01 | 0.01 | 91 | 1031.7 |
| 20260505101413 | 47 | 41 | 0.0 | 0.0 | 0.00 | 0.01 | 0.01 | 90 | 1031.7 |
| 20260505100914 | 47 | 41 | 0.0 | 0.0 | 0.00 | 0.01 | 0.01 | 91 | 1031.7 |
| 20260505100412 | 47 | 41 | 0.0 | 0.0 | 0.00 | 0.01 | 0.01 | 90 | 1031.7 |
| 20260505095913 | 47 | 40 | 0.0 | 0.0 | 0.00 | 0.01 | 0.01 | 90 | 1031.7 |
| 20260505094911 | 48 | 40 | 0.0 | 0.0 | 0.00 | 0.01 | 0.01 | 90 | 1031.7 |
| 20260505094411 | 48 | 40 | 0.0 | 0.0 | 0.00 | 0.01 | 0.01 | 90 | 1031.8 |
| 20260505093910 | 48 | 41 | 0.0 | 0.0 | 0.00 | 0.01 | 0.01 | 90 | 1031.7 |
| 20260505093412 | 48 | 40 | 0.0 | 0.0 | 0.00 | 0.01 | 0.01 | 90 | 1031.7 |
| 20260505092913 | 48 | 41 | 0.0 | 0.0 | 0.00 | 0.01 | 0.01 | 90 | 1031.5 |
| 20260505092410 | 48 | 40 | 0.0 | 0.0 | 0.00 | 0.01 | 0.01 | 89 | 1031.6 |
| 20260505091910 | 48 | 40 | 0.0 | 0.0 | 0.00 | 0.01 | 0.01 | 90 | 1031.7 |
| 20260505091409 | 48 | 41 | 0.0 | 0.0 | 0.00 | 0.01 | 0.01 | 89 | 1031.7 |
| 20260505090407 | 48 | 40 | 0.0 | 0.0 | 0.00 | 0.01 | 0.01 | 89 | 1031.7 |
| 20260505085904 | 49 | 41 | 0.0 | 0.0 | 0.00 | 0.01 | 0.01 | 89 | 1031.6 |
| 20260505085407 | 49 | 41 | 0.0 | 0.0 | 0.00 | 0.01 | 0.01 | 89 | 1031.7 |
| 20260505084904 | 49 | 41 | 0.0 | 0.0 | 0.00 | 0.01 | 0.01 | 89 | 1031.6 |
| 20260505084404 | 49 | 41 | 0.0 | 0.0 | 0.00 | 0.01 | 0.01 | 89 | 1031.6 |
| 20260505083904 | 49 | 41 | 0.0 | 0.0 | 0.00 | 0.01 | 0.01 | 89 | 1031.5 |
| 20260505083405 | 49 | 40 | 0.0 | 0.0 | 0.00 | 0.01 | 0.01 | 92 | 1031.5 |
| 20260505082907 | 49 | 41 | 0.0 | 0.0 | 0.00 | 0.01 | 0.01 | 89 | 1031.6 |
| 20260505082403 | 49 | 40 | 0.0 | 0.0 | 0.00 | 0.01 | 0.01 | 89 | 1031.5 |
| 20260505081858 | 49 | 41 | 0.0 | 0.0 | 0.00 | 0.01 | 0.01 | 89 | 1031.5 |
| 20260505081402 | 49 | 40 | 0.0 | 0.0 | 0.00 | 0.01 | 0.01 | 88 | 1031.5 |
| 20260505080359 | 50 | 40 | 0.0 | 0.0 | 0.00 | 0.01 | 0.01 | 88 | 1031.5 |
| 20260505075354 | 51 | 41 | 0.0 | 0.0 | 0.00 | 0.01 | 0.01 | 88 | 1031.5 |
| 20260505074855 | 51 | 40 | 0.0 | 0.0 | 0.00 | 0.01 | 0.01 | 88 | 1031.5 |
| 20260505074354 | 51 | 40 | 0.0 | 0.0 | 0.00 | 0.01 | 0.01 | 87 | 1031.4 |
| 20260505073857 | 51 | 40 | 0.0 | 0.0 | 0.00 | 0.01 | 0.01 | 87 | 1031.5 |
| 20260505073350 | 51 | 40 | 0.0 | 0.0 | 0.00 | 0.01 | 0.01 | 87 | 1031.4 |
| 20260505072853 | 51 | 40 | 0.0 | 0.0 | 0.00 | 0.01 | 0.01 | 87 | 1031.4 |
| 20260505072350 | 51 | 41 | 0.0 | 0.0 | 0.00 | 0.01 | 0.01 | 86 | 1031.4 |
| 20260505071853 | 51 | 41 | 0.0 | 0.0 | 0.00 | 0.01 | 0.01 | 86 | 1031.4 |
| 20260505071350 | 51 | 41 | 0.0 | 0.0 | 0.00 | 0.01 | 0.01 | 86 | 1031.4 |
| 20260505070851 | 52 | 40 | 0.0 | 0.0 | 0.00 | 0.01 | 0.01 | 86 | 1031.4 |
| 20260505070351 | 52 | 40 | 0.0 | 0.0 | 0.00 | 0.01 | 0.01 | 85 | 1031.5 |
| 20260505065852 | 52 | 40 | 0.0 | 0.0 | 0.00 | 0.01 | 0.01 | 85 | 1031.5 |
| 20260505064349 | 53 | 40 | 0.0 | 0.0 | 0.00 | 0.01 | 0.01 | 84 | 1031.5 |
| 20260505063846 | 53 | 41 | 0.0 | 0.0 | 0.00 | 0.01 | 0.01 | 84 | 1031.4 |
| 20260505063345 | 53 | 41 | 0.0 | 0.0 | 0.00 | 0.01 | 0.01 | 84 | 1031.5 |
| 20260505062346 | 53 | 40 | 0.0 | 0.0 | 0.00 | 0.01 | 0.01 | 83 | 1031.4 |
| 20260505061840 | 53 | 41 | 0.0 | 0.0 | 0.00 | 0.01 | 0.01 | 83 | 1031.5 |
| 20260505060340 | 54 | 41 | 0.0 | 0.0 | 0.00 | 0.01 | 0.01 | 82 | 1031.2 |
| 20260505055841 | 54 | 41 | 0.0 | 0.0 | 0.00 | 0.01 | 0.01 | 82 | 1031.2 |
| 20260505055339 | 54 | 40 | 0.0 | 0.0 | 0.00 | 0.01 | 0.01 | 82 | 1031.1 |
| 20260505054838 | 54 | 40 | 0.0 | 0.0 | 0.00 | 0.01 | 0.01 | 81 | 1031.2 |
| 20260505054336 | 55 | 41 | 0.0 | 0.0 | 0.00 | 0.01 | 0.01 | 81 | 1031.3 |
| 20260505053334 | 55 | 40 | 0.0 | 0.0 | 0.00 | 0.01 | 0.01 | 81 | 1031.0 |
| 20260505052834 | 55 | 40 | 0.0 | 0.0 | 0.00 | 0.01 | 0.01 | 80 | 1031.0 |
| 20260505052334 | 56 | 41 | 0.0 | 1.0 | 0.00 | 0.01 | 0.01 | 80 | 1031.0 |
| 20260505051832 | 56 | 40 | 1.0 | 3.0 | 0.00 | 0.01 | 0.01 | 79 | 1030.9 |
| 20260505051333 | 56 | 40 | 1.0 | 3.0 | 0.00 | 0.01 | 0.01 | 79 | 1031.0 |
| 20260505050831 | 56 | 40 | 2.0 | 4.0 | 0.00 | 0.01 | 0.01 | 79 | 1031.0 |
| 20260505050345 | 56 | 41 | 2.0 | 4.0 | 0.00 | 0.01 | 0.01 | 78 | 1030.9 |